Utilitzem cookies pròpies i de tercers per millorar la seva experiència i els nostres serveis,analitzant la navegació en el nostre Lloc Web. Si continua navegant, vostè està acceptant el seu ús. Podeu obtenir més informació a la nostra Política de cookies. OK

En viu: El Trail 55 Km

El Trail 55 Km

Resultats provisionals

Potser que algun punt de control no tingui connexió a internet o la tingui deficient.

En aquest cas els passos no es podran visualitzar en directe i aniran apareixent a mesura que siguin transmesos des dels punts de control.

VIDRÀ - Intermig


34
Pendents

244
Han passat

Homes

# - Posició P.C. - Participant Temps Dorsal

1 - 1 - LLUíS RUIZ OLLER 03:40:46 1331

2 - 2 - MARTI LAZARO CORDERO 03:40:47 1318

3 - 3 - NIL GAJA BALLARÓ 04:02:03 1080

4 - 5 - ALBERT GARCIA COBOS 04:12:28 1287

5 - 6 - DANI AGUIRRE ARDANAZ 04:12:48 1227

6 - 7 - JORDI DELGADO SANGLAS 04:14:42 1062

7 - 8 - GUILLEM ALBA GARCIA 04:15:03 1105

8 - 9 - DAVID TERUEL HUGUET 04:19:04 1327

9 - 10 - JOEL VALLDOSERA SáNCHEZ 04:22:05 1044

10 - 11 - ARNAU AMADÓ BASSOLS 04:22:09 1165

11 - 12 - JESúS ÁLVAREZ MORALES 04:27:29 1245

12 - 13 - DAVID SEREROLS TORRAS 04:32:20 1017

13 - 14 - DANI FLORES HERNANDEZ 04:34:10 1306

14 - 15 - PAU CASTANYER BENAVENT 04:37:02 1161

15 - 16 - ABEL BELTRAN CAMPILLO 04:37:02 1211

16 - 17 - ALBERT SÁNCHEZ CRIBALLÉS 04:41:04 1134

17 - 19 - NAïM BAULENAS SANGLAS 04:41:58 1202

18 - 20 - DANIEL ALMONACID VICTORIANO 04:42:39 1015

19 - 21 - FRANCESC ROIG 04:46:44 1051

20 - 22 - MIQUEL AULADELL DORDAL 04:49:12 1304

21 - 23 - JORDI TORRENT PARCET 04:51:01 1210

22 - 24 - CRISTIAN LOPEZ REYES 04:51:01 1056

23 - 25 - CRISTIAN TERINGUER CANELA 04:51:13 1157

24 - 26 - ERIC NAVARRO NAJAR 04:51:22 1006

25 - 28 - OSCAR PEREZ MILLAN 04:53:37 1186

26 - 29 - VICENS RIOS GALLART 04:54:29 1022

27 - 30 - GERARD CIURANS TIRADO-MIGUEIZ 04:54:32 1226

28 - 31 - AITOR LóPEZ ALCAY 04:55:04 1335

29 - 32 - UNAI ARTETA CASTELAR 04:59:15 1321

30 - 34 - XAVI BERNAL BAENA 04:59:49 1252

31 - 35 - JORDI ALEMANY QUINTANA 04:59:49 1336

32 - 36 - ENRIC SERRATOSA SOLà 05:05:32 1236

33 - 37 - JOSEP MORENO CARRERA 05:06:19 1145

34 - 38 - JORDI PLANS CONTEL 05:07:46 1117

35 - 39 - JOSEP ZANUY 05:07:53 1187

36 - 40 - ROGER PEIX SOLER 05:08:01 1033

37 - 41 - GERARD SALARICH CROSAS 05:09:04 1146

38 - 42 - XAVIER MIRANDA MIRANDA BEGUE 05:11:04 1083

39 - 43 - ALBERT FABRé LLORENS 05:11:04 1191

40 - 44 - CARLES AMETLLER SULA 05:12:07 1128

41 - 45 - CARLES VIDAL BARRERA 05:12:16 1103

42 - 46 - JAVI FERNANDEZ NAVARRO 05:19:34 1159

43 - 47 - FERNANDO BARCOS NAVARRO 05:19:36 1172

44 - 48 - SERGIO LEAL LOPEZ 05:19:36 1276

45 - 49 - RAMóN BORREGUERO SANCHEZ 05:19:37 1230

46 - 50 - ANTONI BADIA MUNIENTE 05:19:37 1312

47 - 51 - LLORENç CAñíS 05:20:08 1213

48 - 52 - ALEIX MORERA ROCA 05:21:08 1288

49 - 54 - JOSEP GARCIA BORRAS 05:22:46 1093

50 - 55 - GUILLEM LOPEZ FAGEDA 05:23:01 1148

51 - 56 - FRANCESC CAZORLA MUñOZ 05:23:05 1324

52 - 57 - RUBEN GARCIA CALDERON 05:25:00 1176

53 - 58 - ALBERT ARUMí CATALà 05:25:02 1013

54 - 59 - ANGEL ARUMI JIMENEZ 05:25:25 1325

55 - 60 - JUAN MARQUEZ LOPEZ 05:26:39 1198

56 - 61 - RAüL JORGE ANGUITA 05:27:20 1254

57 - 64 - ROGER GIL BERTRAN 05:32:00 1231

58 - 66 - DAVID MUñOZ CASELLAS 05:32:20 1319

59 - 67 - ISMAEL ALZINA CARRERAS 05:32:32 1299

60 - 68 - JOAN AGUSTí NúñEZ GENESTóS 05:33:27 1079

61 - 70 - JUAN MIGUEL DE LA TORRE MORALES 05:34:54 1216

62 - 71 - OSCAR MORAL HIDALGO 05:35:32 1257

63 - 73 - ISIDRO GIL PÉREZ 05:37:21 1320

64 - 74 - ALBERT TORRENS VIVES 05:37:56 1296

65 - 75 - GUIFRÉ PORQUERES PLANELLES 05:39:13 1194

66 - 76 - ANDREU LóPEZ ANADóN 05:39:17 1009

67 - 77 - ANGEL BOTELLO ARMENGOL 05:39:36 1032

68 - 79 - IGNASI SERRANO COLL 05:39:51 1323

69 - 80 - NIS MATEU BOIXADERAS 05:40:11 1139

70 - 81 - SERGIO ASENSIO ROMERO 05:41:32 1184

71 - 82 - PEDRO MOLINA RODRIGUEZ 05:41:36 1087

72 - 83 - GENíS BAYéS COSTA 05:41:41 1109

73 - 84 - RAFAEL LOPéZ RECHE 05:43:08 1242

74 - 85 - JONATHAN ANTONI CIERCO 05:43:22 1041

75 - 87 - PAU SERRA ESCANDELL 05:43:50 1098

76 - 88 - ROBERT PLANAS COLL 05:44:15 1049

77 - 89 - DANIEL CARBONELL MERINO 05:44:22 1007

78 - 90 - IGNACIO FABEIRO GONZALEZ 05:44:48 1277

79 - 91 - DIEGO BARROSO BERMEJO 05:45:24 1059

80 - 93 - BERNAT GORDUN QUILES 05:45:32 1310

81 - 94 - JOSEP FARRERA SINFREU 05:46:14 1270

82 - 96 - DAVID MIGUEL SUAREZ 05:46:44 1197

83 - 97 - JORDI CASACUBERTA JIMENEZ 05:46:45 1282

84 - 98 - DANIEL RODRíGUEZ PEREZ 05:46:47 1010

85 - 99 - DAVID GAZQUEZ GARCIA 05:46:48 1150

86 - 100 - JOSEP BAROT CASANY 05:47:26 1021

87 - 101 - DAVID LEIVA ROLDAN 05:50:03 1075

88 - 102 - YAN MAURAKH - 05:50:07 1328

89 - 103 - JOSEP A JARAMILLO CALDERóN 05:51:56 1188

90 - 105 - ALEJANDRO AZORÍN RODRÍGUEZ 05:52:41 1100

91 - 106 - AURELIAN OANCEA . 05:52:54 1333

92 - 107 - MARCEL BUENO BRUGUES 05:52:56 1133

93 - 108 - ÒSCAR GONZàLEZ GONZàLEZ 05:53:52 1027

94 - 109 - JOSE PEREZ GONZALEZ 05:53:53 1048

95 - 110 - JUAN MANZANO RUBIO 05:55:20 1131

96 - 111 - ENRIC COROMINAS I BOSCH 05:55:53 1046

97 - 112 - NIL GRI LLEBOT 05:56:06 1045

98 - 113 - JULIA FRANCH NADAL 05:56:10 1268

99 - 114 - KRLOS MARTíNEZ GUERRA 05:56:45 1149

100 - 115 - JAUME CORELLA VIVó 05:57:29 1171

101 - 116 - TONI MARQUEZ JIMENEZ 05:58:26 1039

102 - 117 - ROBERTO BAÑOS GONZALEZ 05:58:42 1180

103 - 118 - DAVID DE LA COBA ALQUEZAR 05:58:44 1285

104 - 119 - JUAN ANTONIO VIÑUELA GONZALEZ 05:59:08 1206

105 - 120 - FERRAN MELERO VIGARA 05:59:10 1137

106 - 121 - PERE LOPEZ SORIANOO 05:59:13 1053

107 - 122 - ORIOL FERNANDEZ HOSPITAL 05:59:13 1089

108 - 124 - ADRIA NOTARIO BARDAJI 05:59:18 1256

109 - 125 - ALEJANDRO RUBIO GONZALEZ 06:00:13 1293

110 - 126 - JAUME SOBRERROCA ALSINA 06:00:19 1235

111 - 127 - DAVID VILCHEZ MORENO 06:00:36 1281

112 - 129 - ANTONIO MORALES MARTINEZ 06:01:36 1138

113 - 130 - DIEGO CARRETERO RODRIGUEZ 06:01:39 1301

114 - 131 - LLORENç REIXACH CRUZ 06:01:55 1016

115 - 132 - MOISES OLMEDA 06:02:59 1008

116 - 133 - JOAN MARESMA NUALART 06:03:47 1012

117 - 134 - QUIM MENDIETA SALA-BELLSOLELL 06:04:10 1156

118 - 135 - XAVIER FABRE HEREDIA 06:04:17 1222

119 - 136 - TONI SALAS PALLICER 06:04:26 1248

120 - 137 - OLIVER GALLEGO NAJAR 06:04:31 1014

121 - 138 - CRISTóBAL M. MACARRO CANO 06:05:34 1011

122 - 139 - JUAN CARLOS ABELEDO SANCHEZ 06:08:35 1167

123 - 140 - PLACI ABELEDO SANCHEZ 06:08:41 1160

124 - 141 - ISIDRE ESCAYOLA GARCIA DEL PRADO 06:08:41 1067

125 - 142 - PEPE PORRAS JIMENEZ 06:09:57 1219

126 - 143 - TOMAS LOPEZ ZORNOZA 06:10:10 1154

127 - 144 - TONI PORRAS JIMENEZ 06:10:12 1208

128 - 145 - STEFAN GABRIEL DEL BRIO DI NOTO 06:10:16 1221

129 - 146 - ABEL CANALDA 06:10:42 1104

130 - 147 - DAVID CARRERAS GONZáLEZ 06:10:45 1108

131 - 148 - VICTOR RODRIGUEZ BARCONES 06:10:52 1121

132 - 149 - JOAN CALLEJON BOQUERA 06:12:06 1240

133 - 150 - XEVI PALLAROLS PALLàS 06:12:32 1292

134 - 151 - GUIDO CANCARINI CAPPONI 06:13:07 1136

135 - 152 - JAUME BARRIACH GAYA 06:13:27 1174

136 - 153 - ROGER BATALLA CARABASSA 06:14:53 1122

137 - 154 - ANTON VILARDELL AGULLó 06:15:16 1028

138 - 155 - ALBERT SALA SIDERA 06:15:17 1063

139 - 156 - MARCEL TORT FERNANDEZ 06:15:19 1141

140 - 157 - MARC CASANOVA BELLO 06:15:21 1054

141 - 158 - ALEIX DANOT CUCH 06:15:27 1260

142 - 159 - JUAN ANTONIO CAZORLA ZAMBRANA 06:15:31 1289

143 - 160 - JOSEP CALI CABEZA 06:15:37 1085

144 - 161 - ALBERT MESTRES SUGRAñES 06:16:12 1004

145 - 162 - XAVIER CAMPS BAGET 06:16:44 1253

146 - 163 - MARC CASES 06:18:35 1261

147 - 164 - JOSE ANGEL REVELLES NúñEZ 06:18:35 1042

148 - 165 - XAVIER SOLER I BOSCH 06:18:42 1120

149 - 166 - JORDI DE LA VEGA ARUS 06:18:51 1279

150 - 167 - SALVATORE MESEGUE VALERO 06:19:21 1291

151 - 168 - XAVIER PUIG ESCUDERO 06:19:25 1086

152 - 170 - TONI MAESTRE GARCIA 06:20:22 1050

153 - 171 - JORDI TOLDOS BUENO 06:21:18 1082

154 - 172 - F. XAVIER FABREGAT CASAL 06:21:42 1127

155 - 173 - CARLOS CARRASCOSA TOMAS 06:21:43 1243

156 - 175 - DAVID DIAZ MAYOR 06:23:19 1030

157 - 177 - SERGI CAPDEVILA NORTES 06:23:50 1132

158 - 178 - JORGE FERNANDEZ LIROLA 06:24:42 1061

159 - 179 - AITOR MATA MARTÍNEZ 06:25:15 1088

160 - 180 - SERGI ALSINA LLORENTE 06:26:31 1060

161 - 181 - ISMAEL COBO PIMENTEL 06:27:50 1095

162 - 182 - MIQUEL RAMOS LOPEZ 06:28:17 1173

163 - 183 - IGNASI BASSAS BUJ 06:28:23 1129

164 - 184 - DAVID GARCIA FERNANDEZ 06:28:29 1020

165 - 185 - ALBERT COLS VAZQUEZ 06:29:45 1307

166 - 186 - JOAN BULDó I POLLS 06:30:13 1166

167 - 187 - ARNAU GRANé MASFRET 06:30:32 1265

168 - 188 - JAUME FABREGAT GOU 06:34:51 1196

169 - 189 - XAVI DÍAZ VENDRELL 06:34:52 1170

170 - 190 - JULIO LLORENTE CASTILLO 06:35:19 1084

171 - 191 - TONI DONIGA 06:35:25 1233

172 - 192 - RAFO IGLESIAS LOBO 06:35:26 1305

173 - 193 - JAVITO RUIZ 06:35:31 1314

174 - 194 - DAVID DONIGA VERA 06:35:40 1217

175 - 195 - LLUIS RIBES CASTRO 06:35:56 1123

176 - 196 - PERE SEGURA GARSABALL 06:36:00 1273

177 - 197 - PACO GARCIA RUIZ 06:37:14 1247

178 - 199 - JAN OLIVERES GONZALEZ 06:38:21 1334

179 - 200 - GERARD GARCIA MONTSERRATE 06:40:29 1263

180 - 201 - BRIAN MEDINA GRANADOS 06:40:32 1262

181 - 202 - JORDI FRANCH ANTONELL 06:40:36 1068

182 - 203 - PERE FRANCH ANTONELL 06:40:41 1055

183 - 204 - SERGI GALLEGO ARJONA 06:41:24 1215

184 - 205 - ENRIC BLANCAFORT MUMBRIU 06:41:32 1200

185 - 206 - MOISES PLUJA BLANCH 06:41:47 1283

186 - 209 - DAVID ROS HOMS 06:45:40 1207

187 - 211 - TONI RUIZ JOVER 06:49:08 1040

188 - 213 - VICTOR RUBIA GARCíA 06:50:51 1143

189 - 214 - RAUL JIMENEZ RIVERO 06:51:01 1107

190 - 215 - JORDI ANGLADA CASAS 06:52:32 1255

191 - 216 - PEDRO MIGUEL PERELLó PALLISER 06:53:06 1295

192 - 217 - CARLES RAMOS SOLE 07:03:46 1003

193 - 218 - MARC MASNOU RUBIó 07:04:11 1113

194 - 219 - TONI AMBLAS MOLINA 07:04:11 1294

195 - 220 - ALBERT CUTRINA RUBIO 07:04:14 1114

196 - 221 - XEVI HERNANDEZ CLOTA 07:04:21 1115

197 - 222 - DAVID LEO HEREDIA 07:07:22 1106

198 - 223 - JOSé MARíA FERRER GIRóN 07:11:28 1026

199 - 224 - ALBERTO PLAZA GAMITO 07:11:28 1225

200 - 225 - GONZALO VELASCO REINA 07:11:34 1274

201 - 226 - JUSTO MARTIN SIMON 07:11:56 1073

202 - 227 - DANIEL JEREZ CEBALLOS 07:11:57 1034

203 - 228 - XAVI ALVAREZ ESTANY 07:14:59 1264

204 - 230 - IñAKI ALONSO DE LOS SANTOS 07:15:49 1116

205 - 232 - MARC SERRAT DIAZ 07:17:26 1005

206 - 233 - ALBERT SOLER FREIXER 07:17:48 1035

207 - 234 - ADRIÀ SOLER ABIAN 07:17:52 1118

208 - 235 - JOHN FÉLIX BIGGS GÓMEZ 07:19:34 1158

209 - 236 - ORIOL BAIXAS MORALES 07:22:41 1135

210 - 237 - IVAN JIMéNEZ RODà 07:23:08 1193

211 - 240 - FRANCISCO ANTONIO BARCELÓ MARTÍNEZ 07:28:44 1218

212 - 241 - CéSAR ARRANZ FERNANDEZ 07:28:45 1112

213 - 242 - ALFONSO AGUILERA GARCIA 07:28:45 1110

214 - 243 - JOAN BACH CODINA 07:29:32 1316

215 - 245 - DANIEL LOPEZ SANCHEZ 07:29:55 1130

216 - 246 - JORDI FIGULS GOMEZ 07:42:07 1183

217 - 247 - ADRIA SALANUEVA 07:45:30 1266

218 - 249 - DAVID COSTA SAMBLAS 07:51:17 1179

219 - 250 - FRANCESC XAVIER MARTíNEZ CAPABLO 07:58:24 1052

220 - 251 - JOSEP NAVARRO GARCíA 08:01:04 1076

221 - 252 - SANTIAGO RIOS AZUARA 08:05:14 1029

Dones

# - Posició P.C. - Participant Temps Dorsal

1 - 18 - ANGELS LLOBERA VICENS 04:41:49 1330

2 - 27 - CAROLINA RIUS HERNANDEZ 04:53:30 1308

3 - 33 - CLAUDIA BOSCH RODERO 04:59:48 1224

4 - 53 - JELENA MALYSEVA -- 05:22:11 1300

5 - 63 - EROLA TORTADèS VERDAGUER 05:31:55 1002

6 - 65 - SANDRA MARIA VALENZUELA MENA 05:32:19 1195

7 - 69 - ELENA SANCHEZ GOMEZ 05:33:35 1315

8 - 72 - ROCIO RIOS ORTEGA 05:37:19 1043

9 - 78 - EVA MARIA TAPIA LUQUE 05:39:47 1239

10 - 86 - ALICIA GARRIDO SERRA 05:43:22 1313

11 - 92 - NEUS PEIRÓ PIFARRÉ 05:45:31 1311

12 - 104 - TERESA FORN MUNNE 05:52:07 1290

13 - 128 - SARA GARRE PELEGRINA 06:01:12 1031

14 - 169 - MARTA SEGURA PARRA 06:19:37 1077

15 - 176 - MARIBEL ALFARO NOGUERA 06:23:23 1234

16 - 198 - THAIS JORBA DELGADO 06:38:11 1096

17 - 212 - PAULA ALSINA ROSANAS 06:49:50 1070

18 - 229 - CRISTINA GARCIA PEREZ 07:15:45 1081

19 - 231 - ELISABET BUERA PORTA 07:15:53 1298

20 - 238 - ANNA TRISTANY CODINA 07:24:09 1185

21 - 239 - CARLA LóPEZ PéREZ 07:26:32 1074

22 - 244 - ISABEL COVAS BERNAL 07:29:44 1317

23 - 248 - MARTA ESCALE MORALES 07:51:16 1209

Publicitat